Regional Weather Roundup
Issued by NWS

Home | Current Version | Previous Version | Text Only | Print | Product List | Glossary On
Versions: 1 2 3 4 5 6 7 8 9 10 11 12 13 14 15 16 17 18 19 20 21 22 23 24 25 26 27 28 29 30 31 32 33 34 35 36 37 38 39 40 41 42 43 44 45 46 47 48 49 50
417
ASUS43 KTOP 251659
RWRKS

WEATHER ROUNDUP FOR KANSAS
NATIONAL WEATHER SERVICE GOODLAND KS
1200 PM CDT TUE JUL 25 2017

NOTE:  "FAIR" INDICATES FEW OR NO CLOUDS BELOW 12,000 FEET WITH NO
SIGNIFICANT WEATHER AND/OR OBSTRUCTIONS TO VISIBILITY.

KSZ001>006-013>018-027>032-041>047-251800-
NORTHWEST KANSAS

CITY           SKY/WX    TMP DP  RH WIND       PRES   REMARKS
GOODLAND       SUNNY     87  67  51 S18       30.01F
HAYS           SUNNY     92  69  47 S20G29    30.01F HX  97
HILL CITY      MOSUNNY   91  69  48 S18G28    30.00F HX  96
RUSSELL        SUNNY     92  67  43 S21G29    30.00F HX  95
$$

KSZ061>065-074>080-084>089-251800-
SOUTHWEST KANSAS

CITY           SKY/WX    TMP DP  RH WIND       PRES   REMARKS
DODGE CITY     SUNNY     92  65  40 S14G28    30.05F
ELKHART          N/A     88  57  34 S12         N/A
GARDEN CITY    SUNNY     89  67  47 S17G25    30.04F
GREAT BEND     SUNNY     92  69  47 S20       30.03F HX  97
LIBERAL        SUNNY     91  67  44 S16G24    30.05F
$$

KSZ066>073-081>083-090>101-251800-
SOUTHEAST KANSAS

CITY           SKY/WX    TMP DP  RH WIND       PRES   REMARKS
CHANUTE        SUNNY     90  72  55 S8        30.08F HX  97
COFFEYVILLE    SUNNY     91  72  53 S9        30.07F HX  98
HUTCHINSON     SUNNY     92  67  43 S16       30.04F HX  95
MEDICINE LODGE   N/A     92  68  45 S10G22    30.03F HX  96
NEWTON         SUNNY     90  71  53 S13G21    30.06F HX  96
PARSONS        MOSUNNY   89  73  59 VRB5      30.09S HX  97
WICHITA INTL   MOSUNNY   93  68  43 S16G22    30.04F HX  97
WICHITA JABRA  SUNNY     91  71  51 S15       30.05F HX  97
WICHITA MCCONL SUNNY     90  69  48 SW10      30.06F
WINFIELD       SUNNY     92  69  47 S12G21    30.06F HX  97
$$

KSZ007>012-019>026-033>040-048>060-102>105-251800-
NORTHEAST KANSAS

CITY           SKY/WX    TMP DP  RH WIND       PRES   REMARKS
CONCORDIA      SUNNY     92  69  47 S15       30.02F HX  97
EMPORIA        SUNNY     90  70  51 S13       30.06F HX  95
LAWRENCE       SUNNY     90  74  59 S6        30.05F HX  99
MANHATTAN      SUNNY     94  70  45 S12       30.03S HX 100
OLATHE IND     SUNNY     88  74  63 S10       30.07F HX  96
OLATHE EXE     SUNNY     86  76  71 S8        30.07F HX  96
SALINA         SUNNY     95  67  39 S13G24    30.02F HX  99
TOPEKA BILLARD SUNNY     89  75  63 S13       30.04F HX  99
TOPEKA FORBES  SUNNY     91  74  57 S12       30.05F HX 100
$$




USA.gov is the U.S. government's official web portal to all federal, state and local government web resources and services.